This is the latest recevied weather packets stored in our database for station/object 9W8AKN-L. If no packets are shown the sender has not sent any weather packets the latest 10 day(s).
| Time | Temp. | Humidity | Pressure | Rain* | Wind** | Luminosity | Snow |
|---|---|---|---|---|---|---|---|
| 1778247149 | 27.78° C | 69% | 1010.2 hPa | - | - | - | - |
| 1778246249 | 27.78° C | 72% | 1009.9 hPa | - | - | - | - |
| 1778245349 | 28.33° C | 79% | 1009.7 hPa | - | - | - | - |
| 1778244449 | 28.33° C | 89% | 1009.3 hPa | - | - | - | - |
| 1778243549 | 28.33° C | 92% | 1009 hPa | - | - | - | - |
| 1778242649 | 28.33° C | 91% | 1008.9 hPa | - | - | - | - |
| 1778241749 | 28.89° C | 92% | 1008.7 hPa | - | - | - | - |
| 1778240849 | 28.89° C | 90% | 1008.6 hPa | - | - | - | - |
| 1778239948 | 28.89° C | 92% | 1008.4 hPa | - | - | - | - |
| 1778239048 | 28.89° C | 91% | 1008.2 hPa | - | - | - | - |
| 1778238148 | 28.89° C | 91% | 1008 hPa | - | - | - | - |
| 1778237248 | 28.89° C | 88% | 1007.6 hPa | - | - | - | - |
| 1778236348 | 28.89° C | 87% | 1007.3 hPa | - | - | - | - |
| 1778235448 | 28.89° C | 87% | 1007 hPa | - | - | - | - |
| 1778234548 | 28.89° C | 87% | 1006.8 hPa | - | - | - | - |
| 1778233648 | 28.89° C | 87% | 1006.6 hPa | - | - | - | - |
| 1778232748 | 28.89° C | 87% | 1006.3 hPa | - | - | - | - |
| 1778231848 | 28.89° C | 86% | 1006.1 hPa | - | - | - | - |
| 1778230948 | 28.89° C | 86% | 1006.1 hPa | - | - | - | - |
| 1778230047 | 28.89° C | 84% | 1006.1 hPa | - | - | - | - |
| 1778228247 | 28.89° C | 79% | 1006.2 hPa | - | - | - | - |
| 1778227347 | 28.89° C | 77% | 1006.4 hPa | - | - | - | - |
| 1778226447 | 28.89° C | 76% | 1006.5 hPa | - | - | - | - |
| 1778225547 | 28.89° C | 78% | 1006.9 hPa | - | - | - | - |
| 1778224647 | 28.89° C | 79% | 1006.8 hPa | - | - | - | - |
* Rain since midnight (hover to see other rain measurements)
** Current wind speed in m/s (hover to see current wind gust speed)